SCP
-0 0 0 0 -0 -0 -0 0 0 0 0 0 0 0 0 -0 0 -0 -0 -0 0 0 0 0 0 0 0 0 0 0 0 -0 0 0 0 0 0 0 0 0 0 0 0
-0 0 0 0 -0 -0 -0 0 0 0 0 0 0 0 0 -0 -0 0 0 0 0 0 0 0 0 0 0 0 0 0 0 0 0 0 -0 0 0 0 0 0 0 0 0
-0 0 0 0 -0 -0 -0 -0 0 0 0 -0 -0 -0 0 0 0 0 0 0 0 0 0 0 0 0 0 0 0 0 0 0 0 0 -0 -0 -0 0 0 0 0 0 0
-0 -0 0 0 -0 -0 -0 -0 -0 -0 -0 -0 -0 -0 0 0 0 0 0 0 0 0 0 0 0 0 0 0 0 0 0 0 0 0 0 -0 -0 0 0 0 0 0 0
0 -0 0 0 -0 -0 -0 -0 -0 -0 -0 -0 -0 -0 0 0 0 0 0 0 0 0 0 0 0 0 0 0 0 0 0 0 0 0 0 0 0 0 0 0 0 0 0
0 -0 0 0 -0 -0 -0 -0 -0 -0 -0 -0 0 0 0 0 0 0 0 0 0 0 0 0 0 0 0 0 0 0 0 0 0 0 0 0 0 0 0 0 0 0 0
0 0 -0 0 -0 -0 -0 -0 -0 -0 -0 -0 0 0 0 0 0 0 0 0 0 0 0 0 0 0 0 0 0 0 0 0 0 0 0 0 0 0 0 0 0 0 0
0 0 -0 -0 0 -0 -0 -0 -0 -0 -0 -0 0 0 0 0 0 0 0 0 0 0 0 0 0 0 0 0 0 0 0 0 0 0 0 0 0 0 0 0 0 0 0
0 0 0 -0 0 0 -0 -0 -0 -0 -0 -0 0 0 0 0 0 0 0 0 0 0 0 0 0 0 0 0 0 0 0 0 0 0 0 0 0 0 0 0 0 0 0
0 0 0 0 0 0 0 -0 -0 -0 -0 -0 -0 0 0 0 0 0 0 0 0 0 0 0 0 0 0 0 0 0 0 0 0 0 0 0 0 0 0 0 0 1 0
0 0 0 0 0 0 0 0 0 -0 -0 -0 0 0 0 0 0 0 0 0 0 0 0 0 0 0 1 0 0 0 0 0 0 0 0 0 0 0 0 0 0 1 0
0 0 0 0 0 0 0 0 0 0 0 0 0 0 0 0 0 0 0 0 0 0 0 0 1 1 0 0 0 0 0 0 0 0 0 0 1 0 0 0 0 0 0
0 0 0 0 0 0 0 0 0 0 0 0 0 0 0 0 0 0 0 0 0 0 0 0 1 1 1 0 0 0 0 0 0 0 0 0 1 0 0 0 0 0 0
0 1 0 0 0 0 0 0 0 0 0 0 0 0 0 0 0 0 0 0 0 0 0 0 0 0 1 0 0 0 0 0 0 0 0 0 0 0 0 0 0 0 0
1 2 1 0 0 0 0 0 0 0 0 0 0 0 0 0 0 0 0 0 0 0 0 0 0 0 0 0 0 0 0 0 0 0 0 1 1 0 0 0 0 0 0
0 2 1 1 0 0 0 0 0 0 0 0 0 0 0 0 0 0 0 0 0 0 0 0 0 0 0 0 0 0 0 0 0 0 0 1 0 0 0 0 0 0 0
0 0 1 1 0 0 0 0 0 0 0 0 0 0 0 0 0 0 0 0 0 0 0 0 0 0 0 0 0 0 0 0 0 0 0 1 1 0 0 0 0 0 0
0 0 0 1 1 1 0 0 0 0 0 0 0 0 0 0 0 0 0 0 0 0 0 0 0 0 0 0 0 0 0 0 0 0 1 0 0 0 0 0 0 0 0
0 0 0 0 0 1 2 1 1 1 1 1 1 1 0 0 0 0 0 0 0 0 0 0 0 0 0 0 0 0 0 0 0 1 1 0 0 0 0 0 0 0 0
0 0 0 0 0 0 1 2 2 2 1 1 1 1 1 1 1 0 1 0 0 0 0 0 0 0 0 0 0 0 0 0 0 0 0 0 0 0 0 0 0 0 0
0 0 0 0 1 6 8 6 5 3 3 2 1 1 1 2 2 1 1 1 0 0 0 0 0 0 0 0 0 0 0 0 0 0 0 0 0 0 0 0 0 0 0
0 0 0 0 3 8 6 6 5 4 2 2 2 1 1 2 3 2 1 1 1 1 0 0 0 0 0 0 0 0 0 0 0 0 0 0 0 0 0 0 0 0 0
0 0 0 0 3 6 5 4 0 0 0 0 0 0 0 1 3 3 2 2 1 1 1 0 0 0 0 0 0 0 0 0 0 0 0 0 0 0 0 0 0 0 0
0 0 0 0 2 3 1 0 0 0 0 0 0 1 1 2 3 3 2 2 2 1 1 0 0 0 0 0 0 0 0 0 0 0 0 0 0 0 0 0 0 0 0
0 0 0 0 0 0 0 0 0 0 0 0 0 1 1 2 3 3 2 1 1 1 1 0 0 0 0 0 0 0 0 0 0 0 0 0 0 0 0 0 0 0 0
0 0 0 0 0 0 0 0 0 0 0 0 0 1 2 3 2 3 2 2 1 1 1 0 0 0 0 0 0 0 0 0 0 0 0 0 0 0 0 0 0 0 0
Wind_Speed_500mb
64 57 57 56 55 56 57 57 55 55 52 52 47 43 40 37 33 31 28 26 24 22 21 19 17 15 13 10 7 4 3 1 1 2 2 6 7 8 6 3 4 5 4
74 65 62 61 59 59 58 57 55 53 49 49 45 41 38 34 31 28 26 23 21 19 18 18 16 17 16 14 13 12 11 8 6 8 10 10 12 12 6 2 3 4 7
70 71 67 65 62 60 58 55 53 51 47 44 42 39 34 31 28 25 23 21 19 17 16 15 14 13 14 14 14 14 15 13 13 16 13 12 6 9 8 2 6 5 8
73 74 72 69 65 61 58 54 51 48 45 42 39 36 31 28 24 21 19 17 16 15 13 11 11 11 12 12 12 12 14 17 18 12 7 11 8 6 10 7 9 9 8
75 77 77 74 69 62 58 54 49 46 43 39 36 33 29 25 23 20 18 16 14 12 10 7 6 6 6 9 10 10 11 15 17 12 6 2 8 12 14 11 9 16 12
80 79 80 77 70 61 56 51 47 43 40 38 34 30 27 24 22 21 19 16 15 12 9 8 6 3 2 2 5 7 9 12 18 15 10 5 3 9 14 10 13 14 19
82 81 79 76 67 58 55 51 46 42 38 35 34 32 29 26 24 23 21 20 19 16 15 13 12 9 7 7 4 1 3 7 16 15 13 11 9 7 11 16 17 12 21
85 83 78 73 65 59 55 51 46 42 39 37 35 32 31 29 27 26 25 24 23 23 20 20 19 17 16 14 10 5 1 3 9 21 17 8 9 11 12 13 18 15 20
83 81 77 72 65 57 54 50 45 42 40 39 37 34 32 31 30 30 30 31 30 29 27 27 26 24 24 22 15 10 6 5 5 17 26 16 12 15 14 15 19 19 19
84 79 77 72 67 62 57 52 47 42 41 40 38 37 36 36 36 36 36 38 38 37 35 35 34 33 31 29 24 16 12 8 8 15 23 18 10 15 19 17 22 21 19
82 78 75 73 69 65 60 54 51 45 43 42 41 41 42 43 43 42 43 43 44 43 42 41 41 40 38 34 31 23 18 12 13 15 16 14 12 14 16 19 24 22 19
82 81 77 74 70 66 63 58 54 49 46 46 45 45 46 45 46 47 47 48 49 49 50 49 48 48 46 42 36 31 25 15 15 22 17 15 15 21 18 19 26 22 18
81 76 77 74 70 68 65 61 57 52 47 47 47 48 47 49 51 53 53 54 55 52 58 56 55 56 53 49 41 38 29 23 22 21 18 23 26 28 17 19 25 22 20
76 76 78 78 73 70 66 61 57 54 50 50 48 47 50 52 53 58 57 56 57 54 62 59 59 58 57 54 48 42 36 31 29 27 21 21 18 22 19 20 22 24 21
73 77 82 85 78 70 66 63 60 57 52 47 43 44 48 51 51 53 50 49 52 49 55 52 52 49 49 49 50 47 41 36 34 30 29 29 21 20 26 28 27 30 23
76 85 82 81 79 67 62 57 48 46 44 46 45 45 44 47 49 45 42 43 44 38 45 43 40 37 35 36 39 39 32 29 33 33 31 33 36 37 32 33 29 30 25
46 66 82 75 68 64 60 44 36 37 38 46 45 45 46 47 49 46 45 46 43 38 40 40 36 35 37 33 28 28 30 24 32 36 35 37 35 36 37 38 35 31 26
43 42 37 63 70 61 57 60 49 50 45 48 49 52 50 49 53 55 50 54 47 43 42 42 39 39 38 36 29 29 32 31 30 36 42 40 45 42 43 41 42 37 31
53 57 75 59 68 60 66 58 55 52 49 52 56 62 55 52 55 60 56 56 57 50 49 45 41 44 40 37 37 37 34 36 37 41 38 42 44 48 44 43 42 35 30
53 61 70 76 71 54 48 59 61 56 53 58 63 64 59 57 60 60 59 61 61 56 56 49 47 45 46 40 35 37 41 39 39 49 45 44 51 50 45 45 37 35 32
77 62 79 98 96 81 92 82 75 66 68 70 67 61 58 60 61 58 61 65 62 58 57 47 45 52 48 39 35 36 43 44 46 50 47 44 51 38 41 38 40 39 41
85 81 69 89 87 93 93 82 81 71 72 69 68 61 57 61 63 60 63 64 58 57 54 47 48 52 48 45 42 39 38 47 55 52 51 45 35 35 37 41 43 46 43
81 78 58 66 84 94 91 83 82 76 75 69 70 63 61 63 60 57 52 49 54 53 51 48 53 48 48 46 47 41 15 28 35 28 29 31 32 31 32 41 43 42 37
82 72 77 57 82 93 88 84 83 79 74 62 62 65 67 64 55 55 52 48 49 48 47 47 49 47 43 45 47 48 43 36 14 9 17 21 19 20 27 28 28 35 34
74 94 82 76 69 96 87 77 68 66 62 53 51 60 63 55 57 56 55 48 46 47 45 41 41 42 37 42 47 46 43 44 46 38 31 26 28 20 21 22 24 26 33
71 80 84 79 63 85 76 69 70 70 60 59 54 55 55 50 54 59 54 45 43 42 38 37 35 36 35 37 44 42 39 40 37 32 29 28 23 19 19 18 20 18 23
Wind_Direction_500mb
159 161 155 151 145 140 140 141 140 139 139 136 135 133 131 128 126 121 116 109 104 99 96 93 93 93 89 86 86 75 44 38 170 193 133 140 149 97 62 56 140 119 95
152 162 159 155 149 145 144 145 145 144 144 141 139 136 135 133 129 125 120 116 112 108 102 98 95 95 95 94 89 84 82 89 103 106 107 124 113 102 128 289 235 196 163
155 162 163 158 154 151 149 151 150 149 150 148 146 146 146 144 140 138 136 135 132 129 122 119 114 110 104 97 93 92 96 100 115 117 115 110 94 87 67 293 273 211 189
160 163 167 162 159 156 155 157 157 156 158 159 159 159 159 157 154 154 156 153 154 144 134 130 126 117 109 106 103 102 100 115 134 128 126 98 61 85 4 342 253 243 210
165 168 169 165 165 160 161 162 165 167 167 170 169 169 169 171 169 175 177 176 176 168 156 156 143 120 109 112 114 113 116 133 153 153 170 106 37 13 351 333 297 240 231
166 172 171 168 168 162 165 168 172 177 179 178 177 179 181 184 187 190 196 197 205 195 191 209 210 189 197 110 130 129 134 157 172 179 218 214 63 340 350 337 330 255 229
169 173 173 171 172 168 172 175 178 183 190 191 191 190 194 200 205 208 211 213 220 220 220 228 237 236 250 257 252 162 121 160 192 206 225 219 188 269 308 328 337 276 233
172 174 174 173 177 176 178 182 186 192 197 204 208 208 208 212 216 222 226 230 231 233 232 238 244 247 249 252 253 271 279 177 206 226 220 233 193 265 305 326 328 310 241
177 176 176 177 180 183 183 186 191 199 206 211 218 223 227 228 228 232 236 240 240 242 242 244 247 251 254 256 255 259 259 248 220 222 227 244 232 250 287 312 326 313 264
181 180 181 183 184 187 189 192 196 204 211 218 224 230 235 239 240 241 243 245 246 246 247 247 249 250 251 254 259 254 250 257 237 237 223 239 231 247 280 304 319 307 267
185 187 189 190 191 193 194 197 200 206 217 223 228 233 238 242 246 247 250 251 250 251 251 250 251 252 253 252 256 256 247 257 248 212 211 247 262 262 274 310 326 305 265
191 193 197 198 198 199 200 201 205 208 217 226 232 237 242 247 251 254 256 255 254 254 256 253 253 253 253 254 255 256 252 249 229 208 231 256 269 243 264 305 326 313 259
200 199 203 205 207 206 208 207 210 213 220 230 237 243 250 252 254 258 259 258 257 257 258 256 256 256 257 258 257 259 257 241 208 219 242 261 257 245 260 300 319 322 263
200 203 209 212 210 211 215 215 217 222 225 235 244 251 255 257 258 261 263 264 265 262 262 261 261 261 262 263 262 261 259 249 219 224 245 258 268 247 263 294 311 322 283
213 207 207 209 210 212 218 220 224 228 233 239 240 248 254 260 263 263 263 267 268 265 264 262 260 260 263 267 265 262 263 259 233 235 248 258 252 271 286 289 303 306 290
223 215 215 213 211 210 218 217 222 228 235 241 244 251 257 265 265 260 259 266 270 270 269 267 258 259 264 274 273 258 253 259 233 239 256 251 273 274 278 280 287 294 294
200 214 226 222 211 206 215 217 229 241 242 247 251 258 258 261 267 270 271 274 276 278 274 266 257 254 254 263 263 253 242 250 231 260 253 268 265 270 267 272 266 278 281
209 214 197 224 216 213 231 244 246 242 250 253 260 257 254 257 268 274 276 283 277 275 272 267 261 256 256 256 257 254 245 239 245 265 259 259 263 265 265 257 265 272 276
233 231 212 208 217 236 239 240 237 238 249 259 264 259 253 259 266 271 276 282 279 270 267 266 259 253 254 258 265 265 254 242 252 261 263 261 267 270 263 253 260 263 264
262 231 203 197 216 214 227 229 232 237 244 252 257 256 255 259 265 268 270 272 275 265 262 258 252 250 255 260 264 261 255 247 250 262 269 267 276 276 265 263 242 251 256
263 255 240 231 232 234 218 224 226 224 232 238 242 245 248 252 259 267 266 265 267 259 259 256 252 247 252 254 253 243 242 249 253 263 275 273 275 271 259 262 254 240 250
258 256 245 235 232 224 219 222 226 234 238 244 250 245 252 263 267 268 267 266 265 257 249 244 239 238 240 246 240 237 240 255 265 271 272 269 266 262 259 258 249 249 260
253 247 254 237 231 215 217 221 222 224 232 237 245 252 260 266 268 261 262 261 259 253 247 249 241 233 236 240 244 240 236 248 265 269 259 255 260 264 264 257 254 247 239
244 247 252 245 228 223 221 217 222 221 230 242 258 269 270 263 263 258 258 254 254 248 243 249 236 235 237 239 243 245 240 249 250 277 271 265 262 266 263 257 249 239 237
258 251 255 249 249 233 224 226 234 235 241 252 263 266 264 257 253 257 251 245 243 241 248 229 228 231 236 242 241 239 245 243 254 263 277 272 268 270 271 256 243 234 235
276 254 254 239 245 225 225 232 240 247 251 256 257 259 256 255 246 245 241 241 242 247 219 221 229 228 237 242 243 244 237 236 242 249 259 268 266 270 265 245 238 230 219
Wind_Speed_850mb
64 57 57 56 55 56 57 57 55 55 52 52 47 43 40 37 33 31 28 26 24 22 21 19 17 15 13 10 7 4 3 1 1 2 2 6 7 8 6 3 4 5 4
74 65 62 61 59 59 58 57 55 53 49 49 45 41 38 34 31 28 26 23 21 19 18 18 16 17 16 14 13 12 11 8 6 8 10 10 12 12 6 2 3 4 7
70 71 67 65 62 60 58 55 53 51 47 44 42 39 34 31 28 25 23 21 19 17 16 15 14 13 14 14 14 14 15 13 13 16 13 12 6 9 8 2 6 5 8
73 74 72 69 65 61 58 54 51 48 45 42 39 36 31 28 24 21 19 17 16 15 13 11 11 11 12 12 12 12 14 17 18 12 7 11 8 6 10 7 9 9 8
75 77 77 74 69 62 58 54 49 46 43 39 36 33 29 25 23 20 18 16 14 12 10 7 6 6 6 9 10 10 11 15 17 12 6 2 8 12 14 11 9 16 12
80 79 80 77 70 61 56 51 47 43 40 38 34 30 27 24 22 21 19 16 15 12 9 8 6 3 2 2 5 7 9 12 18 15 10 5 3 9 14 10 13 14 19
82 81 79 76 67 58 55 51 46 42 38 35 34 32 29 26 24 23 21 20 19 16 15 13 12 9 7 7 4 1 3 7 16 15 13 11 9 7 11 16 17 12 21
85 83 78 73 65 59 55 51 46 42 39 37 35 32 31 29 27 26 25 24 23 23 20 20 19 17 16 14 10 5 1 3 9 21 17 8 9 11 12 13 18 15 20
83 81 77 72 65 57 54 50 45 42 40 39 37 34 32 31 30 30 30 31 30 29 27 27 26 24 24 22 15 10 6 5 5 17 26 16 12 15 14 15 19 19 19
84 79 77 72 67 62 57 52 47 42 41 40 38 37 36 36 36 36 36 38 38 37 35 35 34 33 31 29 24 16 12 8 8 15 23 18 10 15 19 17 22 21 19
82 78 75 73 69 65 60 54 51 45 43 42 41 41 42 43 43 42 43 43 44 43 42 41 41 40 38 34 31 23 18 12 13 15 16 14 12 14 16 19 24 22 19
82 81 77 74 70 66 63 58 54 49 46 46 45 45 46 45 46 47 47 48 49 49 50 49 48 48 46 42 36 31 25 15 15 22 17 15 15 21 18 19 26 22 18
81 76 77 74 70 68 65 61 57 52 47 47 47 48 47 49 51 53 53 54 55 52 58 56 55 56 53 49 41 38 29 23 22 21 18 23 26 28 17 19 25 22 20
76 76 78 78 73 70 66 61 57 54 50 50 48 47 50 52 53 58 57 56 57 54 62 59 59 58 57 54 48 42 36 31 29 27 21 21 18 22 19 20 22 24 21
73 77 82 85 78 70 66 63 60 57 52 47 43 44 48 51 51 53 50 49 52 49 55 52 52 49 49 49 50 47 41 36 34 30 29 29 21 20 26 28 27 30 23
76 85 82 81 79 67 62 57 48 46 44 46 45 45 44 47 49 45 42 43 44 38 45 43 40 37 35 36 39 39 32 29 33 33 31 33 36 37 32 33 29 30 25
46 66 82 75 68 64 60 44 36 37 38 46 45 45 46 47 49 46 45 46 43 38 40 40 36 35 37 33 28 28 30 24 32 36 35 37 35 36 37 38 35 31 26
43 42 37 63 70 61 57 60 49 50 45 48 49 52 50 49 53 55 50 54 47 43 42 42 39 39 38 36 29 29 32 31 30 36 42 40 45 42 43 41 42 37 31
53 57 75 59 68 60 66 58 55 52 49 52 56 62 55 52 55 60 56 56 57 50 49 45 41 44 40 37 37 37 34 36 37 41 38 42 44 48 44 43 42 35 30
53 61 70 76 71 54 48 59 61 56 53 58 63 64 59 57 60 60 59 61 61 56 56 49 47 45 46 40 35 37 41 39 39 49 45 44 51 50 45 45 37 35 32
77 62 79 98 96 81 92 82 75 66 68 70 67 61 58 60 61 58 61 65 62 58 57 47 45 52 48 39 35 36 43 44 46 50 47 44 51 38 41 38 40 39 41
85 81 69 89 87 93 93 82 81 71 72 69 68 61 57 61 63 60 63 64 58 57 54 47 48 52 48 45 42 39 38 47 55 52 51 45 35 35 37 41 43 46 43
81 78 58 66 84 94 91 83 82 76 75 69 70 63 61 63 60 57 52 49 54 53 51 48 53 48 48 46 47 41 15 28 35 28 29 31 32 31 32 41 43 42 37
82 72 77 57 82 93 88 84 83 79 74 62 62 65 67 64 55 55 52 48 49 48 47 47 49 47 43 45 47 48 43 36 14 9 17 21 19 20 27 28 28 35 34
74 94 82 76 69 96 87 77 68 66 62 53 51 60 63 55 57 56 55 48 46 47 45 41 41 42 37 42 47 46 43 44 46 38 31 26 28 20 21 22 24 26 33
71 80 84 79 63 85 76 69 70 70 60 59 54 55 55 50 54 59 54 45 43 42 38 37 35 36 35 37 44 42 39 40 37 32 29 28 23 19 19 18 20 18 23
Wind_Direction_850mb
159 161 155 151 145 140 140 141 140 139 139 136 135 133 131 128 126 121 116 109 104 99 96 93 93 93 89 86 86 75 44 38 170 193 133 140 149 97 62 56 140 119 95
152 162 159 155 149 145 144 145 145 144 144 141 139 136 135 133 129 125 120 116 112 108 102 98 95 95 95 94 89 84 82 89 103 106 107 124 113 102 128 289 235 196 163
155 162 163 158 154 151 149 151 150 149 150 148 146 146 146 144 140 138 136 135 132 129 122 119 114 110 104 97 93 92 96 100 115 117 115 110 94 87 67 293 273 211 189
160 163 167 162 159 156 155 157 157 156 158 159 159 159 159 157 154 154 156 153 154 144 134 130 126 117 109 106 103 102 100 115 134 128 126 98 61 85 4 342 253 243 210
165 168 169 165 165 160 161 162 165 167 167 170 169 169 169 171 169 175 177 176 176 168 156 156 143 120 109 112 114 113 116 133 153 153 170 106 37 13 351 333 297 240 231
166 172 171 168 168 162 165 168 172 177 179 178 177 179 181 184 187 190 196 197 205 195 191 209 210 189 197 110 130 129 134 157 172 179 218 214 63 340 350 337 330 255 229
169 173 173 171 172 168 172 175 178 183 190 191 191 190 194 200 205 208 211 213 220 220 220 228 237 236 250 257 252 162 121 160 192 206 225 219 188 269 308 328 337 276 233
172 174 174 173 177 176 178 182 186 192 197 204 208 208 208 212 216 222 226 230 231 233 232 238 244 247 249 252 253 271 279 177 206 226 220 233 193 265 305 326 328 310 241
177 176 176 177 180 183 183 186 191 199 206 211 218 223 227 228 228 232 236 240 240 242 242 244 247 251 254 256 255 259 259 248 220 222 227 244 232 250 287 312 326 313 264
181 180 181 183 184 187 189 192 196 204 211 218 224 230 235 239 240 241 243 245 246 246 247 247 249 250 251 254 259 254 250 257 237 237 223 239 231 247 280 304 319 307 267
185 187 189 190 191 193 194 197 200 206 217 223 228 233 238 242 246 247 250 251 250 251 251 250 251 252 253 252 256 256 247 257 248 212 211 247 262 262 274 310 326 305 265
191 193 197 198 198 199 200 201 205 208 217 226 232 237 242 247 251 254 256 255 254 254 256 253 253 253 253 254 255 256 252 249 229 208 231 256 269 243 264 305 326 313 259
200 199 203 205 207 206 208 207 210 213 220 230 237 243 250 252 254 258 259 258 257 257 258 256 256 256 257 258 257 259 257 241 208 219 242 261 257 245 260 300 319 322 263
200 203 209 212 210 211 215 215 217 222 225 235 244 251 255 257 258 261 263 264 265 262 262 261 261 261 262 263 262 261 259 249 219 224 245 258 268 247 263 294 311 322 283
213 207 207 209 210 212 218 220 224 228 233 239 240 248 254 260 263 263 263 267 268 265 264 262 260 260 263 267 265 262 263 259 233 235 248 258 252 271 286 289 303 306 290
223 215 215 213 211 210 218 217 222 228 235 241 244 251 257 265 265 260 259 266 270 270 269 267 258 259 264 274 273 258 253 259 233 239 256 251 273 274 278 280 287 294 294
200 214 226 222 211 206 215 217 229 241 242 247 251 258 258 261 267 270 271 274 276 278 274 266 257 254 254 263 263 253 242 250 231 260 253 268 265 270 267 272 266 278 281
209 214 197 224 216 213 231 244 246 242 250 253 260 257 254 257 268 274 276 283 277 275 272 267 261 256 256 256 257 254 245 239 245 265 259 259 263 265 265 257 265 272 276
233 231 212 208 217 236 239 240 237 238 249 259 264 259 253 259 266 271 276 282 279 270 267 266 259 253 254 258 265 265 254 242 252 261 263 261 267 270 263 253 260 263 264
262 231 203 197 216 214 227 229 232 237 244 252 257 256 255 259 265 268 270 272 275 265 262 258 252 250 255 260 264 261 255 247 250 262 269 267 276 276 265 263 242 251 256
263 255 240 231 232 234 218 224 226 224 232 238 242 245 248 252 259 267 266 265 267 259 259 256 252 247 252 254 253 243 242 249 253 263 275 273 275 271 259 262 254 240 250
258 256 245 235 232 224 219 222 226 234 238 244 250 245 252 263 267 268 267 266 265 257 249 244 239 238 240 246 240 237 240 255 265 271 272 269 266 262 259 258 249 249 260
253 247 254 237 231 215 217 221 222 224 232 237 245 252 260 266 268 261 262 261 259 253 247 249 241 233 236 240 244 240 236 248 265 269 259 255 260 264 264 257 254 247 239
244 247 252 245 228 223 221 217 222 221 230 242 258 269 270 263 263 258 258 254 254 248 243 249 236 235 237 239 243 245 240 249 250 277 271 265 262 266 263 257 249 239 237
258 251 255 249 249 233 224 226 234 235 241 252 263 266 264 257 253 257 251 245 243 241 248 229 228 231 236 242 241 239 245 243 254 263 277 272 268 270 271 256 243 234 235
276 254 254 239 245 225 225 232 240 247 251 256 257 259 256 255 246 245 241 241 242 247 219 221 229 228 237 242 243 244 237 236 242 249 259 268 266 270 265 245 238 230 219